INTELSAT 33E DEB, 64402

Orbit data source: Space-Track

INTELSAT 33E DEB, 64402 is space debris in GEO originally from a launch on Wed, 24 Aug 2016 UTC launched from the French Guiana (FRGUI). Debris objects in space refer to the collection of defunct objects orbiting the Earth. Examples of debris include non-operational satellites, rocket bodies, and fragments generated from explosions, collisions, or faulty payload assembly.

Not visible in the next 10 days
Identifier
64402, 2016-053AG
Orbit
GEO
Last TLE update
1 day ago
Origin
Flag of UnknownINTELU (Unknown / ITSO)
Manufacturer
Boeing/ES
Mission
Spacecraft
Bus & Motor
Unknown
Mass
Unknown
Launch date (UTC)
2016-08-24 (9 years ago)
Launch vehicle
Unknown
Launch site
French Guiana (FRGUI)
Object type
Payload
Rocket body
Debris
Shape & HBR
Unknown
Radar Cross Section
RCS unknown

Expand to show TLE details & history

TLE from 1 day ago
0 INTELSAT 33E DEB
1 64402U 16053AG  25180.92398757 -.00000200  00000-0  00000-0 0  9990
2 64402   0.6082  68.1974 0128054 101.1379 190.9260  0.98354449  2400
Epoch: 2025-06-29T22:10Z
TLE epoch observation values (Epoch: 2025-06-29T22:10:32.526Z)
Latitude
-0.5734°
Longitude
109.12457°
Altitude
36,867.492 km
Speed
3.017 km/s
True Right ascension
00h 00m 00s
True Declination
0° 34' 22"
Sunlit
Object was in daylight at epoch
Visualization orbit readout
Latitude
0.62473°
Longitude
-90.93376°
Altitude
35,794.114 km
Speed
3.094 km/s
Apparent Right ascension
10h 29m 55s
Apparent Declination
-4° 25' 25"
Sunlit
Object is in daylight
Visualization observer readout
Local Sidereal Time
21:03:11
Azimuth
325.463° NNW
Elevation
-49.47°
Doppler factor
1
Orbital elements
Apogee altitude
36,880.808 km
Perigee altitude
35,786.92 km
Semi-major axis
42,712.001 km
Eccentricity
0.01281
Inclination
0.6082°
RAAN
68.1974°
Arg. of periapsis
101.1379°
True anomaly
Unknown
Mean anomaly
190.926°
Eccentric anomaly
Unknown
Mean motion
0.24588 °/min
Orbital period
1,464.15 mins
BSTAR
0
Loading historical data...
64402 neighbors
Loading maneuver chart data...
Loading SW <> Apogee altitude chart data...
Loading historical data...
Loading historical data...
Loading historical data...
Loading historical data...
Loading historical data...
Loading historical data...
Loading historical data...

INTELSAT 33E DEB Visibility

Observer location: undefined°, undefined°

INTELSAT 33E DEB is likely not visible in the next few days
Span
Click to sort rows by Start time (UTC) header in descending order
Start Az.
Max El. time (UTC)
Max El. Az.
Max El.
End time (UTC)
End Az.
|